owner,sensor,date,latitude,longitude,vertical_datum,sea_water_practical_salinity,qcFlag 
NERRS,ioos:station:NOAA.NERRS:rkblhwq:1,2017-11-01T00:45:00Z,26.0257,-81.7332,1.09,22.5,1111122 
NERRS,ioos:station:NOAA.NERRS:rkblhwq:1,2017-11-01T01:45:00Z,26.0257,-81.7332,1.22,23.5,1111122 
NERRS,ioos:station:NOAA.NERRS:rkblhwq:1,2017-11-01T02:45:00Z,26.0257,-81.7332,1.35,24.3,1111122 
NERRS,ioos:station:NOAA.NERRS:rkblhwq:1,2017-11-01T03:45:00Z,26.0257,-81.7332,1.44,25.1,1111122 
NERRS,ioos:station:NOAA.NERRS:rkblhwq:1,2017-11-01T04:45:00Z,26.0257,-81.7332,1.44,24.7,1111122 
NERRS,ioos:station:NOAA.NERRS:rkblhwq:1,2017-11-01T05:45:00Z,26.0257,-81.7332,1.32,24.5,1111122 
NERRS,ioos:station:NOAA.NERRS:rkblhwq:1,2017-11-01T06:45:00Z,26.0257,-81.7332,1.16,24.3,1111122 
NERRS,ioos:station:NOAA.NERRS:rkblhwq:1,2017-11-01T07:45:00Z,26.0257,-81.7332,1.02,24.1,1111122 
NERRS,ioos:station:NOAA.NERRS:rkblhwq:1,2017-11-01T08:45:00Z,26.0257,-81.7332,0.9,24.1,1111122 
NERRS,ioos:station:NOAA.NERRS:rkblhwq:1,2017-11-01T09:45:00Z,26.0257,-81.7332,0.82,23.9,1111122 
NERRS,ioos:station:NOAA.NERRS:rkblhwq:1,2017-11-01T10:45:00Z,26.0257,-81.7332,0.81,19.9,1111122 
NERRS,ioos:station:NOAA.NERRS:rkblhwq:1,2017-11-01T11:45:00Z,26.0257,-81.7332,0.92,22.7,1111122 
NERRS,ioos:station:NOAA.NERRS:rkblhwq:1,2017-11-01T12:45:00Z,26.0257,-81.7332,1.08,22.3,1111122 
NERRS,ioos:station:NOAA.NERRS:rkblhwq:1,2017-11-01T13:45:00Z,26.0257,-81.7332,1.24,23.5,1111122 
NERRS,ioos:station:NOAA.NERRS:rkblhwq:1,2017-11-01T14:45:00Z,26.0257,-81.7332,1.4,24.6,1111122 
NERRS,ioos:station:NOAA.NERRS:rkblhwq:1,2017-11-01T15:45:00Z,26.0257,-81.7332,1.51,25.7,1111122 
NERRS,ioos:station:NOAA.NERRS:rkblhwq:1,2017-11-01T16:45:00Z,26.0257,-81.7332,1.54,26.1,1111122 
NERRS,ioos:station:NOAA.NERRS:rkblhwq:1,2017-11-01T17:45:00Z,26.0257,-81.7332,1.46,24.0,1111122 
NERRS,ioos:station:NOAA.NERRS:rkblhwq:1,2017-11-01T18:45:00Z,26.0257,-81.7332,1.31,24.5,1111122 
NERRS,ioos:station:NOAA.NERRS:rkblhwq:1,2017-11-01T19:45:00Z,26.0257,-81.7332,1.17,23.8,1111122 
NERRS,ioos:station:NOAA.NERRS:rkblhwq:1,2017-11-01T20:45:00Z,26.0257,-81.7332,1.06,23.4,1111122 
NERRS,ioos:station:NOAA.NERRS:rkblhwq:1,2017-11-01T21:45:00Z,26.0257,-81.7332,0.97,23.6,1111122 
NERRS,ioos:station:NOAA.NERRS:rkblhwq:1,2017-11-01T22:45:00Z,26.0257,-81.7332,0.97,22.6,1111122 
NERRS,ioos:station:NOAA.NERRS:rkblhwq:1,2017-11-01T23:45:00Z,26.0257,-81.7332,1.07,23.6,1111122 
NERRS,ioos:station:NOAA.NERRS:rkblhwq:1,2017-11-02T00:45:00Z,26.0257,-81.7332,1.21,23.4,1111122 
NERRS,ioos:station:NOAA.NERRS:rkblhwq:1,2017-11-02T01:45:00Z,26.0257,-81.7332,1.37,24.5,1111122 
NERRS,ioos:station:NOAA.NERRS:rkblhwq:1,2017-11-02T02:45:00Z,26.0257,-81.7332,1.52,25.6,1111122 
NERRS,ioos:station:NOAA.NERRS:rkblhwq:1,2017-11-02T03:45:00Z,26.0257,-81.7332,1.63,26.5,1111122 
NERRS,ioos:station:NOAA.NERRS:rkblhwq:1,2017-11-02T04:45:00Z,26.0257,-81.7332,1.68,27.3,1111122 
NERRS,ioos:station:NOAA.NERRS:rkblhwq:1,2017-11-02T05:45:00Z,26.0257,-81.7332,1.6,25.6,1111122 
NERRS,ioos:station:NOAA.NERRS:rkblhwq:1,2017-11-02T06:45:00Z,26.0257,-81.7332,1.45,25.5,1111122 
NERRS,ioos:station:NOAA.NERRS:rkblhwq:1,2017-11-02T07:45:00Z,26.0257,-81.7332,1.28,26.7,1111122 
NERRS,ioos:station:NOAA.NERRS:rkblhwq:1,2017-11-02T08:45:00Z,26.0257,-81.7332,1.12,25.8,1111122 
NERRS,ioos:station:NOAA.NERRS:rkblhwq:1,2017-11-02T09:45:00Z,26.0257,-81.7332,0.98,24.9,1111122 
NERRS,ioos:station:NOAA.NERRS:rkblhwq:1,2017-11-02T10:45:00Z,26.0257,-81.7332,0.86,23.8,1111122 
NERRS,ioos:station:NOAA.NERRS:rkblhwq:1,2017-11-02T11:45:00Z,26.0257,-81.7332,0.87,23.5,1111122 
NERRS,ioos:station:NOAA.NERRS:rkblhwq:1,2017-11-02T12:45:00Z,26.0257,-81.7332,1.01,23.3,1111122 
NERRS,ioos:station:NOAA.NERRS:rkblhwq:1,2017-11-02T13:45:00Z,26.0257,-81.7332,1.2,24.5,1111122 
NERRS,ioos:station:NOAA.NERRS:rkblhwq:1,2017-11-02T14:45:00Z,26.0257,-81.7332,1.38,25.0,1111122 
NERRS,ioos:station:NOAA.NERRS:rkblhwq:1,2017-11-02T15:45:00Z,26.0257,-81.7332,1.53,25.9,1111122 
NERRS,ioos:station:NOAA.NERRS:rkblhwq:1,2017-11-02T16:45:00Z,26.0257,-81.7332,1.63,27.1,1111122 
NERRS,ioos:station:NOAA.NERRS:rkblhwq:1,2017-11-02T17:45:00Z,26.0257,-81.7332,1.62,26.9,1111122 
NERRS,ioos:station:NOAA.NERRS:rkblhwq:1,2017-11-02T18:45:00Z,26.0257,-81.7332,1.49,25.2,1111122 
NERRS,ioos:station:NOAA.NERRS:rkblhwq:1,2017-11-02T19:45:00Z,26.0257,-81.7332,1.33,26.1,1111122 
NERRS,ioos:station:NOAA.NERRS:rkblhwq:1,2017-11-02T20:45:00Z,26.0257,-81.7332,1.17,25.7,1111122 
NERRS,ioos:station:NOAA.NERRS:rkblhwq:1,2017-11-02T21:45:00Z,26.0257,-81.7332,1.05,22.9,1111122 
NERRS,ioos:station:NOAA.NERRS:rkblhwq:1,2017-11-02T22:45:00Z,26.0257,-81.7332,0.95,22.4,1111122 
NERRS,ioos:station:NOAA.NERRS:rkblhwq:1,2017-11-02T23:45:00Z,26.0257,-81.7332,0.93,21.9,1111122 
NERRS,ioos:station:NOAA.NERRS:rkblhwq:1,2017-11-03T00:45:00Z,26.0257,-81.7332,1.03,25.2,1111122 
NERRS,ioos:station:NOAA.NERRS:rkblhwq:1,2017-11-03T01:45:00Z,26.0257,-81.7332,1.19,23.8,1111122 
NERRS,ioos:station:NOAA.NERRS:rkblhwq:1,2017-11-03T02:45:00Z,26.0257,-81.7332,1.34,25.6,1111122 
NERRS,ioos:station:NOAA.NERRS:rkblhwq:1,2017-11-03T03:45:00Z,26.0257,-81.7332,1.47,25.7,1111122 
NERRS,ioos:station:NOAA.NERRS:rkblhwq:1,2017-11-03T04:45:00Z,26.0257,-81.7332,1.56,26.8,1111122 
NERRS,ioos:station:NOAA.NERRS:rkblhwq:1,2017-11-03T05:45:00Z,26.0257,-81.7332,1.56,26.5,1111122 
NERRS,ioos:station:NOAA.NERRS:rkblhwq:1,2017-11-03T06:45:00Z,26.0257,-81.7332,1.43,26.5,1111122 
NERRS,ioos:station:NOAA.NERRS:rkblhwq:1,2017-11-03T07:45:00Z,26.0257,-81.7332,1.26,26.1,1111122 
NERRS,ioos:station:NOAA.NERRS:rkblhwq:1,2017-11-03T08:45:00Z,26.0257,-81.7332,1.09,25.1,1111122 
NERRS,ioos:station:NOAA.NERRS:rkblhwq:1,2017-11-03T09:45:00Z,26.0257,-81.7332,0.93,23.6,1111122 
NERRS,ioos:station:NOAA.NERRS:rkblhwq:1,2017-11-03T10:45:00Z,26.0257,-81.7332,0.78,23.5,1111122 
NERRS,ioos:station:NOAA.NERRS:rkblhwq:1,2017-11-03T11:45:00Z,26.0257,-81.7332,0.68,22.3,1111122 
NERRS,ioos:station:NOAA.NERRS:rkblhwq:1,2017-11-03T12:45:00Z,26.0257,-81.7332,0.71,21.3,1111122 
NERRS,ioos:station:NOAA.NERRS:rkblhwq:1,2017-11-03T13:45:00Z,26.0257,-81.7332,0.87,23.1,1111122 
NERRS,ioos:station:NOAA.NERRS:rkblhwq:1,2017-11-03T14:45:00Z,26.0257,-81.7332,1.06,24.5,1111122 
NERRS,ioos:station:NOAA.NERRS:rkblhwq:1,2017-11-03T15:45:00Z,26.0257,-81.7332,1.27,25.2,1111122 
NERRS,ioos:station:NOAA.NERRS:rkblhwq:1,2017-11-03T16:45:00Z,26.0257,-81.7332,1.44,26.1,1111122 
NERRS,ioos:station:NOAA.NERRS:rkblhwq:1,2017-11-03T17:45:00Z,26.0257,-81.7332,1.54,27.8,1111122 
NERRS,ioos:station:NOAA.NERRS:rkblhwq:1,2017-11-03T18:45:00Z,26.0257,-81.7332,1.55,27.7,1111122 
NERRS,ioos:station:NOAA.NERRS:rkblhwq:1,2017-11-03T19:45:00Z,26.0257,-81.7332,1.42,25.3,1111122 
NERRS,ioos:station:NOAA.NERRS:rkblhwq:1,2017-11-03T20:45:00Z,26.0257,-81.7332,1.28,24.8,1111122 
NERRS,ioos:station:NOAA.NERRS:rkblhwq:1,2017-11-03T21:45:00Z,26.0257,-81.7332,1.14,24.5,1111122 
NERRS,ioos:station:NOAA.NERRS:rkblhwq:1,2017-11-03T22:45:00Z,26.0257,-81.7332,1.03,24.2,1111122 
NERRS,ioos:station:NOAA.NERRS:rkblhwq:1,2017-11-03T23:45:00Z,26.0257,-81.7332,0.95,23.6,1111122 
NERRS,ioos:station:NOAA.NERRS:rkblhwq:1,2017-11-04T01:45:00Z,26.0257,-81.7332,1.13,25.3,1111122 
NERRS,ioos:station:NOAA.NERRS:rkblhwq:1,2017-11-04T02:45:00Z,26.0257,-81.7332,1.31,25.8,1111122 
NERRS,ioos:station:NOAA.NERRS:rkblhwq:1,2017-11-04T03:45:00Z,26.0257,-81.7332,1.45,26.9,1111122 
NERRS,ioos:station:NOAA.NERRS:rkblhwq:1,2017-11-04T04:45:00Z,26.0257,-81.7332,1.57,27.9,1111122 
NERRS,ioos:station:NOAA.NERRS:rkblhwq:1,2017-11-04T05:45:00Z,26.0257,-81.7332,1.61,28.0,1111122 
NERRS,ioos:station:NOAA.NERRS:rkblhwq:1,2017-11-04T06:45:00Z,26.0257,-81.7332,1.53,26.7,1111122 
NERRS,ioos:station:NOAA.NERRS:rkblhwq:1,2017-11-04T07:45:00Z,26.0257,-81.7332,1.38,27.5,1111122 
NERRS,ioos:station:NOAA.NERRS:rkblhwq:1,2017-11-04T08:45:00Z,26.0257,-81.7332,1.2,27.1,1111122 
NERRS,ioos:station:NOAA.NERRS:rkblhwq:1,2017-11-04T09:45:00Z,26.0257,-81.7332,1.02,25.7,1111122 
NERRS,ioos:station:NOAA.NERRS:rkblhwq:1,2017-11-04T10:45:00Z,26.0257,-81.7332,0.86,24.3,1111122 
NERRS,ioos:station:NOAA.NERRS:rkblhwq:1,2017-11-04T11:45:00Z,26.0257,-81.7332,0.72,23.8,1111122 
NERRS,ioos:station:NOAA.NERRS:rkblhwq:1,2017-11-04T12:45:00Z,26.0257,-81.7332,0.62,23.5,1111122 
NERRS,ioos:station:NOAA.NERRS:rkblhwq:1,2017-11-04T13:45:00Z,26.0257,-81.7332,0.69,22.7,1111122 
NERRS,ioos:station:NOAA.NERRS:rkblhwq:1,2017-11-04T14:45:00Z,26.0257,-81.7332,0.85,24.4,1111122 
NERRS,ioos:station:NOAA.NERRS:rkblhwq:1,2017-11-04T15:45:00Z,26.0257,-81.7332,1.06,24.9,1111122 
NERRS,ioos:station:NOAA.NERRS:rkblhwq:1,2017-11-04T16:45:00Z,26.0257,-81.7332,1.26,26.1,1111122 
NERRS,ioos:station:NOAA.NERRS:rkblhwq:1,2017-11-04T17:45:00Z,26.0257,-81.7332,1.43,26.5,1111122 
NERRS,ioos:station:NOAA.NERRS:rkblhwq:1,2017-11-04T18:45:00Z,26.0257,-81.7332,1.53,29.2,1111122 
NERRS,ioos:station:NOAA.NERRS:rkblhwq:1,2017-11-04T19:45:00Z,26.0257,-81.7332,1.52,28.1,1111122 
NERRS,ioos:station:NOAA.NERRS:rkblhwq:1,2017-11-04T20:45:00Z,26.0257,-81.7332,1.39,26.9,1111122 
NERRS,ioos:station:NOAA.NERRS:rkblhwq:1,2017-11-04T21:45:00Z,26.0257,-81.7332,1.26,26.2,1111122 
NERRS,ioos:station:NOAA.NERRS:rkblhwq:1,2017-11-04T22:45:00Z,26.0257,-81.7332,1.14,25.4,1111122 
NERRS,ioos:station:NOAA.NERRS:rkblhwq:1,2017-11-04T23:45:00Z,26.0257,-81.7332,1.05,24.9,1111122 
NERRS,ioos:station:NOAA.NERRS:rkblhwq:1,2017-11-05T00:45:00Z,26.0257,-81.7332,1.02,24.8,1111122 
NERRS,ioos:station:NOAA.NERRS:rkblhwq:1,2017-11-05T01:45:00Z,26.0257,-81.7332,1.11,26.9,1111122 
NERRS,ioos:station:NOAA.NERRS:rkblhwq:1,2017-11-05T02:45:00Z,26.0257,-81.7332,1.28,26.0,1111122 
NERRS,ioos:station:NOAA.NERRS:rkblhwq:1,2017-11-05T03:45:00Z,26.0257,-81.7332,1.44,27.8,1111122 
NERRS,ioos:station:NOAA.NERRS:rkblhwq:1,2017-11-05T04:45:00Z,26.0257,-81.7332,1.57,28.6,1111122 
NERRS,ioos:station:NOAA.NERRS:rkblhwq:1,2017-11-05T05:45:00Z,26.0257,-81.7332,1.65,29.5,1111122 
NERRS,ioos:station:NOAA.NERRS:rkblhwq:1,2017-11-05T06:45:00Z,26.0257,-81.7332,1.67,29.3,1111122 
NERRS,ioos:station:NOAA.NERRS:rkblhwq:1,2017-11-05T07:45:00Z,26.0257,-81.7332,1.57,28.0,1111122 
NERRS,ioos:station:NOAA.NERRS:rkblhwq:1,2017-11-05T08:45:00Z,26.0257,-81.7332,1.42,28.5,1111122 
NERRS,ioos:station:NOAA.NERRS:rkblhwq:1,2017-11-05T09:45:00Z,26.0257,-81.7332,1.23,27.2,1111122 
NERRS,ioos:station:NOAA.NERRS:rkblhwq:1,2017-11-05T10:45:00Z,26.0257,-81.7332,1.05,26.5,1111122 
NERRS,ioos:station:NOAA.NERRS:rkblhwq:1,2017-11-05T11:45:00Z,26.0257,-81.7332,0.88,25.9,1111122 
NERRS,ioos:station:NOAA.NERRS:rkblhwq:1,2017-11-05T12:45:00Z,26.0257,-81.7332,0.74,25.3,1111122 
NERRS,ioos:station:NOAA.NERRS:rkblhwq:1,2017-11-05T13:45:00Z,26.0257,-81.7332,0.65,24.7,1111122 
NERRS,ioos:station:NOAA.NERRS:rkblhwq:1,2017-11-05T14:45:00Z,26.0257,-81.7332,0.75,25.2,1111122 
NERRS,ioos:station:NOAA.NERRS:rkblhwq:1,2017-11-05T15:45:00Z,26.0257,-81.7332,0.93,26.1,1111122 
NERRS,ioos:station:NOAA.NERRS:rkblhwq:1,2017-11-05T16:45:00Z,26.0257,-81.7332,1.13,26.5,1111122 
NERRS,ioos:station:NOAA.NERRS:rkblhwq:1,2017-11-05T17:45:00Z,26.0257,-81.7332,1.34,27.6,1111122 
NERRS,ioos:station:NOAA.NERRS:rkblhwq:1,2017-11-05T18:45:00Z,26.0257,-81.7332,1.51,28.0,1111122 
NERRS,ioos:station:NOAA.NERRS:rkblhwq:1,2017-11-05T19:45:00Z,26.0257,-81.7332,1.6,29.9,1111122 
NERRS,ioos:station:NOAA.NERRS:rkblhwq:1,2017-11-05T20:45:00Z,26.0257,-81.7332,1.55,28.8,1111122 
NERRS,ioos:station:NOAA.NERRS:rkblhwq:1,2017-11-05T21:45:00Z,26.0257,-81.7332,1.43,28.8,1111122 
NERRS,ioos:station:NOAA.NERRS:rkblhwq:1,2017-11-05T22:45:00Z,26.0257,-81.7332,1.3,28.1,1111122 
NERRS,ioos:station:NOAA.NERRS:rkblhwq:1,2017-11-05T23:45:00Z,26.0257,-81.7332,1.2,28.1,1111122 
NERRS,ioos:station:NOAA.NERRS:rkblhwq:1,2017-11-06T00:45:00Z,26.0257,-81.7332,1.11,27.7,1111122 
NERRS,ioos:station:NOAA.NERRS:rkblhwq:1,2017-11-06T01:45:00Z,26.0257,-81.7332,1.12,26.9,1111122 
NERRS,ioos:station:NOAA.NERRS:rkblhwq:1,2017-11-06T02:45:00Z,26.0257,-81.7332,1.24,27.9,1111122 
NERRS,ioos:station:NOAA.NERRS:rkblhwq:1,2017-11-06T03:45:00Z,26.0257,-81.7332,1.39,27.6,1111122 
NERRS,ioos:station:NOAA.NERRS:rkblhwq:1,2017-11-06T04:45:00Z,26.0257,-81.7332,1.54,28.8,1111122 
NERRS,ioos:station:NOAA.NERRS:rkblhwq:1,2017-11-06T05:45:00Z,26.0257,-81.7332,1.65,29.7,1111122 
NERRS,ioos:station:NOAA.NERRS:rkblhwq:1,2017-11-06T06:45:00Z,26.0257,-81.7332,1.69,30.3,1111122 
NERRS,ioos:station:NOAA.NERRS:rkblhwq:1,2017-11-06T07:45:00Z,26.0257,-81.7332,1.68,30.0,1111122 
NERRS,ioos:station:NOAA.NERRS:rkblhwq:1,2017-11-06T08:45:00Z,26.0257,-81.7332,1.57,29.6,1111122 
NERRS,ioos:station:NOAA.NERRS:rkblhwq:1,2017-11-06T09:45:00Z,26.0257,-81.7332,1.41,29.5,1111122 
NERRS,ioos:station:NOAA.NERRS:rkblhwq:1,2017-11-06T10:45:00Z,26.0257,-81.7332,1.22,28.9,1111122 
NERRS,ioos:station:NOAA.NERRS:rkblhwq:1,2017-11-06T11:45:00Z,26.0257,-81.7332,1.03,28.1,1111122 
NERRS,ioos:station:NOAA.NERRS:rkblhwq:1,2017-11-06T12:45:00Z,26.0257,-81.7332,0.87,27.0,1111122 
NERRS,ioos:station:NOAA.NERRS:rkblhwq:1,2017-11-06T13:45:00Z,26.0257,-81.7332,0.73,26.2,1111122 
NERRS,ioos:station:NOAA.NERRS:rkblhwq:1,2017-11-06T14:45:00Z,26.0257,-81.7332,0.66,25.7,1111122 
NERRS,ioos:station:NOAA.NERRS:rkblhwq:1,2017-11-06T15:45:00Z,26.0257,-81.7332,0.78,26.1,1111122 
NERRS,ioos:station:NOAA.NERRS:rkblhwq:1,2017-11-06T16:45:00Z,26.0257,-81.7332,0.94,26.6,1111122 
NERRS,ioos:station:NOAA.NERRS:rkblhwq:1,2017-11-06T17:45:00Z,26.0257,-81.7332,1.12,27.4,1111122 
NERRS,ioos:station:NOAA.NERRS:rkblhwq:1,2017-11-06T18:45:00Z,26.0257,-81.7332,1.3,28.2,1111122 
NERRS,ioos:station:NOAA.NERRS:rkblhwq:1,2017-11-06T19:45:00Z,26.0257,-81.7332,1.44,28.3,1111122 
NERRS,ioos:station:NOAA.NERRS:rkblhwq:1,2017-11-06T20:45:00Z,26.0257,-81.7332,1.51,29.3,1111122 
NERRS,ioos:station:NOAA.NERRS:rkblhwq:1,2017-11-06T21:45:00Z,26.0257,-81.7332,1.45,28.7,1111122 
NERRS,ioos:station:NOAA.NERRS:rkblhwq:1,2017-11-06T22:45:00Z,26.0257,-81.7332,1.33,28.7,1111122 
NERRS,ioos:station:NOAA.NERRS:rkblhwq:1,2017-11-06T23:45:00Z,26.0257,-81.7332,1.22,28.5,1111122 
NERRS,ioos:station:NOAA.NERRS:rkblhwq:1,2017-11-07T00:45:00Z,26.0257,-81.7332,1.13,28.2,1111122 
NERRS,ioos:station:NOAA.NERRS:rkblhwq:1,2017-11-07T01:45:00Z,26.0257,-81.7332,1.07,27.9,1111122 
NERRS,ioos:station:NOAA.NERRS:rkblhwq:1,2017-11-07T02:45:00Z,26.0257,-81.7332,1.11,27.2,1111122 
NERRS,ioos:station:NOAA.NERRS:rkblhwq:1,2017-11-07T03:45:00Z,26.0257,-81.7332,1.24,27.8,1111122 
NERRS,ioos:station:NOAA.NERRS:rkblhwq:1,2017-11-07T04:45:00Z,26.0257,-81.7332,1.39,28.5,1111122 
NERRS,ioos:station:NOAA.NERRS:rkblhwq:1,2017-11-07T05:45:00Z,26.0257,-81.7332,1.51,29.4,1111122 
NERRS,ioos:station:NOAA.NERRS:rkblhwq:1,2017-11-07T06:45:00Z,26.0257,-81.7332,1.59,30.1,1111122 
NERRS,ioos:station:NOAA.NERRS:rkblhwq:1,2017-11-07T07:45:00Z,26.0257,-81.7332,1.62,30.1,1111122 
NERRS,ioos:station:NOAA.NERRS:rkblhwq:1,2017-11-07T08:45:00Z,26.0257,-81.7332,1.56,29.3,1111122 
NERRS,ioos:station:NOAA.NERRS:rkblhwq:1,2017-11-07T09:45:00Z,26.0257,-81.7332,1.43,29.1,1111122 
NERRS,ioos:station:NOAA.NERRS:rkblhwq:1,2017-11-07T10:45:00Z,26.0257,-81.7332,1.27,28.7,1111122 
NERRS,ioos:station:NOAA.NERRS:rkblhwq:1,2017-11-07T11:45:00Z,26.0257,-81.7332,1.1,28.6,1111122 
NERRS,ioos:station:NOAA.NERRS:rkblhwq:1,2017-11-07T12:45:00Z,26.0257,-81.7332,0.94,26.7,1111122 
NERRS,ioos:station:NOAA.NERRS:rkblhwq:1,2017-11-07T13:45:00Z,26.0257,-81.7332,0.79,26.1,1111122 
NERRS,ioos:station:NOAA.NERRS:rkblhwq:1,2017-11-07T16:45:00Z,26.0257,-81.7332,0.77,26.2,1111122 
NERRS,ioos:station:NOAA.NERRS:rkblhwq:1,2017-11-07T18:45:00Z,26.0257,-81.7332,1.12,27.5,1111122 
NERRS,ioos:station:NOAA.NERRS:rkblhwq:1,2017-11-07T19:45:00Z,26.0257,-81.7332,1.29,28.2,1111122 
NERRS,ioos:station:NOAA.NERRS:rkblhwq:1,2017-11-07T20:45:00Z,26.0257,-81.7332,1.44,28.7,1111122 
NERRS,ioos:station:NOAA.NERRS:rkblhwq:1,2017-11-07T22:45:00Z,26.0257,-81.7332,1.44,28.9,1111122 
NERRS,ioos:station:NOAA.NERRS:rkblhwq:1,2017-11-07T23:45:00Z,26.0257,-81.7332,1.35,28.8,1111122 
NERRS,ioos:station:NOAA.NERRS:rkblhwq:1,2017-11-08T00:45:00Z,26.0257,-81.7332,1.26,28.5,1111122 
NERRS,ioos:station:NOAA.NERRS:rkblhwq:1,2017-11-08T01:45:00Z,26.0257,-81.7332,1.17,28.6,1111122 
NERRS,ioos:station:NOAA.NERRS:rkblhwq:1,2017-11-08T03:45:00Z,26.0257,-81.7332,1.21,28.7,1111122 
NERRS,ioos:station:NOAA.NERRS:rkblhwq:1,2017-11-08T05:45:00Z,26.0257,-81.7332,1.43,29.0,1111122 
NERRS,ioos:station:NOAA.NERRS:rkblhwq:1,2017-11-08T07:45:00Z,26.0257,-81.7332,1.6,30.5,1111122 
NERRS,ioos:station:NOAA.NERRS:rkblhwq:1,2017-11-08T08:45:00Z,26.0257,-81.7332,1.62,30.2,1111122 
NERRS,ioos:station:NOAA.NERRS:rkblhwq:1,2017-11-08T09:45:00Z,26.0257,-81.7332,1.55,29.5,1111122 
NERRS,ioos:station:NOAA.NERRS:rkblhwq:1,2017-11-08T10:45:00Z,26.0257,-81.7332,1.42,29.6,1111122 
NERRS,ioos:station:NOAA.NERRS:rkblhwq:1,2017-11-08T11:45:00Z,26.0257,-81.7332,1.27,29.7,1111122 
NERRS,ioos:station:NOAA.NERRS:rkblhwq:1,2017-11-08T12:45:00Z,26.0257,-81.7332,1.1,28.9,1111122 
NERRS,ioos:station:NOAA.NERRS:rkblhwq:1,2017-11-08T13:45:00Z,26.0257,-81.7332,0.95,27.6,1111122 
NERRS,ioos:station:NOAA.NERRS:rkblhwq:1,2017-11-08T14:45:00Z,26.0257,-81.7332,0.8,27.1,1111122 
NERRS,ioos:station:NOAA.NERRS:rkblhwq:1,2017-11-08T15:45:00Z,26.0257,-81.7332,0.69,26.8,1111122 
NERRS,ioos:station:NOAA.NERRS:rkblhwq:1,2017-11-08T16:45:00Z,26.0257,-81.7332,0.7,25.9,1111122 
NERRS,ioos:station:NOAA.NERRS:rkblhwq:1,2017-11-08T17:45:00Z,26.0257,-81.7332,0.81,27.1,1111122 
NERRS,ioos:station:NOAA.NERRS:rkblhwq:1,2017-11-08T18:45:00Z,26.0257,-81.7332,3.02,28.1,1111122 
NERRS,ioos:station:NOAA.NERRS:rkblhwq:1,2017-11-08T19:45:00Z,26.0257,-81.7332,3.55,28.8,1111122 
NERRS,ioos:station:NOAA.NERRS:rkblhwq:1,2017-11-08T20:45:00Z,26.0257,-81.7332,4.06,29.2,1111122 
NERRS,ioos:station:NOAA.NERRS:rkblhwq:1,2017-11-08T21:45:00Z,26.0257,-81.7332,4.49,29.6,1111122 
NERRS,ioos:station:NOAA.NERRS:rkblhwq:1,2017-11-08T22:45:00Z,26.0257,-81.7332,4.74,30.2,1111122 
NERRS,ioos:station:NOAA.NERRS:rkblhwq:1,2017-11-08T23:45:00Z,26.0257,-81.7332,4.58,29.4,1111122 
NERRS,ioos:station:NOAA.NERRS:rkblhwq:1,2017-11-09T00:45:00Z,26.0257,-81.7332,4.33,29.5,1111122 
NERRS,ioos:station:NOAA.NERRS:rkblhwq:1,2017-11-09T01:45:00Z,26.0257,-81.7332,4.06,29.5,1111122 
NERRS,ioos:station:NOAA.NERRS:rkblhwq:1,2017-11-09T02:45:00Z,26.0257,-81.7332,3.84,28.9,1111122 
NERRS,ioos:station:NOAA.NERRS:rkblhwq:1,2017-11-09T03:45:00Z,26.0257,-81.7332,3.83,28.7,1111122 
NERRS,ioos:station:NOAA.NERRS:rkblhwq:1,2017-11-09T04:45:00Z,26.0257,-81.7332,4.03,30.4,1111122 
NERRS,ioos:station:NOAA.NERRS:rkblhwq:1,2017-11-09T05:45:00Z,26.0257,-81.7332,4.31,29.7,1111122 
NERRS,ioos:station:NOAA.NERRS:rkblhwq:1,2017-11-09T06:45:00Z,26.0257,-81.7332,4.57,29.8,1111122 
NERRS,ioos:station:NOAA.NERRS:rkblhwq:1,2017-11-09T07:45:00Z,26.0257,-81.7332,4.82,30.7,1111122 
NERRS,ioos:station:NOAA.NERRS:rkblhwq:1,2017-11-09T08:45:00Z,26.0257,-81.7332,4.99,31.0,1111122 
NERRS,ioos:station:NOAA.NERRS:rkblhwq:1,2017-11-09T09:45:00Z,26.0257,-81.7332,4.98,30.9,1111122 
NERRS,ioos:station:NOAA.NERRS:rkblhwq:1,2017-11-09T10:45:00Z,26.0257,-81.7332,4.75,29.8,1111122 
NERRS,ioos:station:NOAA.NERRS:rkblhwq:1,2017-11-09T11:45:00Z,26.0257,-81.7332,4.37,30.6,1111122 
NERRS,ioos:station:NOAA.NERRS:rkblhwq:1,2017-11-09T12:45:00Z,26.0257,-81.7332,3.93,30.2,1111122 
NERRS,ioos:station:NOAA.NERRS:rkblhwq:1,2017-11-09T13:45:00Z,26.0257,-81.7332,3.5,28.4,1111122 
NERRS,ioos:station:NOAA.NERRS:rkblhwq:1,2017-11-09T14:45:00Z,26.0257,-81.7332,3.07,27.9,1111122 
NERRS,ioos:station:NOAA.NERRS:rkblhwq:1,2017-11-09T15:45:00Z,26.0257,-81.7332,2.64,27.4,1111122 
NERRS,ioos:station:NOAA.NERRS:rkblhwq:1,2017-11-09T16:45:00Z,26.0257,-81.7332,2.32,27.2,1111122 
NERRS,ioos:station:NOAA.NERRS:rkblhwq:1,2017-11-09T17:45:00Z,26.0257,-81.7332,2.37,27.1,1111122 
NERRS,ioos:station:NOAA.NERRS:rkblhwq:1,2017-11-09T18:45:00Z,26.0257,-81.7332,2.76,27.9,1111122 
NERRS,ioos:station:NOAA.NERRS:rkblhwq:1,2017-11-09T19:45:00Z,26.0257,-81.7332,3.23,29.0,1111122 
NERRS,ioos:station:NOAA.NERRS:rkblhwq:1,2017-11-09T20:45:00Z,26.0257,-81.7332,3.7,29.2,1111122 
NERRS,ioos:station:NOAA.NERRS:rkblhwq:1,2017-11-09T21:45:00Z,26.0257,-81.7332,4.17,29.3,1111122 
NERRS,ioos:station:NOAA.NERRS:rkblhwq:1,2017-11-09T22:45:00Z,26.0257,-81.7332,4.54,29.8,1111122 
NERRS,ioos:station:NOAA.NERRS:rkblhwq:1,2017-11-09T23:45:00Z,26.0257,-81.7332,4.75,30.3,1111122 
NERRS,ioos:station:NOAA.NERRS:rkblhwq:1,2017-11-10T00:45:00Z,26.0257,-81.7332,4.68,29.8,1111122 
NERRS,ioos:station:NOAA.NERRS:rkblhwq:1,2017-11-10T01:45:00Z,26.0257,-81.7332,4.4,29.8,1111122 
NERRS,ioos:station:NOAA.NERRS:rkblhwq:1,2017-11-10T02:45:00Z,26.0257,-81.7332,4.18,29.6,1111122 
NERRS,ioos:station:NOAA.NERRS:rkblhwq:1,2017-11-10T03:45:00Z,26.0257,-81.7332,3.91,29.5,1111122 
NERRS,ioos:station:NOAA.NERRS:rkblhwq:1,2017-11-10T04:45:00Z,26.0257,-81.7332,3.72,28.8,1111122 
NERRS,ioos:station:NOAA.NERRS:rkblhwq:1,2017-11-10T05:45:00Z,26.0257,-81.7332,3.78,28.9,1111122 
NERRS,ioos:station:NOAA.NERRS:rkblhwq:1,2017-11-10T06:45:00Z,26.0257,-81.7332,4.05,30.0,1111122 
NERRS,ioos:station:NOAA.NERRS:rkblhwq:1,2017-11-10T07:45:00Z,26.0257,-81.7332,4.33,29.6,1111122 
NERRS,ioos:station:NOAA.NERRS:rkblhwq:1,2017-11-10T08:45:00Z,26.0257,-81.7332,4.53,29.7,1111122 
NERRS,ioos:station:NOAA.NERRS:rkblhwq:1,2017-11-10T09:45:00Z,26.0257,-81.7332,4.66,30.3,1111122 
NERRS,ioos:station:NOAA.NERRS:rkblhwq:1,2017-11-10T10:45:00Z,26.0257,-81.7332,4.76,30.9,1111122 
NERRS,ioos:station:NOAA.NERRS:rkblhwq:1,2017-11-10T11:45:00Z,26.0257,-81.7332,4.69,30.3,1111122 
NERRS,ioos:station:NOAA.NERRS:rkblhwq:1,2017-11-10T12:45:00Z,26.0257,-81.7332,4.35,30.0,1111122 
NERRS,ioos:station:NOAA.NERRS:rkblhwq:1,2017-11-10T13:45:00Z,26.0257,-81.7332,3.93,29.8,1111122 
NERRS,ioos:station:NOAA.NERRS:rkblhwq:1,2017-11-10T14:45:00Z,26.0257,-81.7332,3.5,28.0,1111122 
NERRS,ioos:station:NOAA.NERRS:rkblhwq:1,2017-11-10T15:45:00Z,26.0257,-81.7332,3.09,28.1,1111122 
NERRS,ioos:station:NOAA.NERRS:rkblhwq:1,2017-11-10T16:45:00Z,26.0257,-81.7332,2.69,27.7,1111122 
NERRS,ioos:station:NOAA.NERRS:rkblhwq:1,2017-11-10T17:45:00Z,26.0257,-81.7332,2.41,27.8,1111122 
NERRS,ioos:station:NOAA.NERRS:rkblhwq:1,2017-11-10T18:45:00Z,26.0257,-81.7332,2.47,27.1,1111122 
NERRS,ioos:station:NOAA.NERRS:rkblhwq:1,2017-11-10T19:45:00Z,26.0257,-81.7332,2.8,28.1,1111122 
NERRS,ioos:station:NOAA.NERRS:rkblhwq:1,2017-11-10T20:45:00Z,26.0257,-81.7332,3.17,28.5,1111122 
NERRS,ioos:station:NOAA.NERRS:rkblhwq:1,2017-11-10T21:45:00Z,26.0257,-81.7332,3.61,28.9,1111122 
NERRS,ioos:station:NOAA.NERRS:rkblhwq:1,2017-11-10T22:45:00Z,26.0257,-81.7332,4.06,29.2,1111122 
NERRS,ioos:station:NOAA.NERRS:rkblhwq:1,2017-11-10T23:45:00Z,26.0257,-81.7332,4.44,29.7,1111122 
NERRS,ioos:station:NOAA.NERRS:rkblhwq:1,2017-11-11T00:45:00Z,26.0257,-81.7332,4.66,29.9,1111122 
NERRS,ioos:station:NOAA.NERRS:rkblhwq:1,2017-11-11T01:45:00Z,26.0257,-81.7332,4.51,29.3,1111122 
NERRS,ioos:station:NOAA.NERRS:rkblhwq:1,2017-11-11T02:45:00Z,26.0257,-81.7332,4.21,28.7,1111122 
NERRS,ioos:station:NOAA.NERRS:rkblhwq:1,2017-11-11T03:45:00Z,26.0257,-81.7332,3.9,28.5,1111122 
NERRS,ioos:station:NOAA.NERRS:rkblhwq:1,2017-11-11T04:45:00Z,26.0257,-81.7332,3.57,28.4,1111122 
NERRS,ioos:station:NOAA.NERRS:rkblhwq:1,2017-11-11T05:45:00Z,26.0257,-81.7332,3.27,28.3,1111122 
NERRS,ioos:station:NOAA.NERRS:rkblhwq:1,2017-11-11T06:45:00Z,26.0257,-81.7332,3.14,28.2,1111122 
NERRS,ioos:station:NOAA.NERRS:rkblhwq:1,2017-11-11T07:45:00Z,26.0257,-81.7332,3.25,28.6,1111122 
NERRS,ioos:station:NOAA.NERRS:rkblhwq:1,2017-11-11T08:45:00Z,26.0257,-81.7332,3.52,29.2,1111122 
NERRS,ioos:station:NOAA.NERRS:rkblhwq:1,2017-11-11T09:45:00Z,26.0257,-81.7332,3.85,28.9,1111122 
NERRS,ioos:station:NOAA.NERRS:rkblhwq:1,2017-11-11T10:45:00Z,26.0257,-81.7332,4.16,29.4,1111122 
NERRS,ioos:station:NOAA.NERRS:rkblhwq:1,2017-11-11T11:45:00Z,26.0257,-81.7332,4.43,30.1,1111122 
NERRS,ioos:station:NOAA.NERRS:rkblhwq:1,2017-11-11T12:45:00Z,26.0257,-81.7332,4.54,30.1,1111122 
NERRS,ioos:station:NOAA.NERRS:rkblhwq:1,2017-11-11T13:45:00Z,26.0257,-81.7332,4.35,28.1,1111122 